DW7792 Weather Reports


Display with metric or nautical units.
time (UTC)temp
F
wind
direction
speed
MPH
gust
MPH
rain 1hr
in
rain 24hr
in
rain mn
in
humidity
%
barometer
mb
20260504081528 36 304 28.0 48.0 0.01 0.91 0.13 94 982.9
20260504060107 38 262 15.0 28.0 0.02 0.87 0.09 97 978.3
20260504044544 39 256 12.0 22.0 0.03 0.84 0.06 97 976.3
20260504043052 38 257 11.0 18.0 0.04 0.83 0.06 97 975.7
20260504041538 38 271 11.0 20.0 0.03 0.82 0.04 97 974.9
20260504040035 38 264 7.0 15.0 0.03 0.81 0.03 97 974.3
20260504034536 38 305 9.0 12.0 0.04 0.81 0.03 97 973.8
20260504033030 39 344 3.0 6.0 0.03 0.80 0.02 97 973.5
20260504031528 38 56 5.0 11.0 0.03 0.79 0.01 97 973.5
20260504030026 38 68 10.0 22.0 0.02 0.78 0.78 97 973.6
20260504024524 38 78 14.0 26.0 0.02 0.77 0.77 97 974.1
20260504023020 39 108 15.0 23.0 0.02 0.76 0.76 97 974.9
20260504021518 39 100 20.0 26.0 0.01 0.76 0.76 97 976.0
20260504020015 39 95 18.0 26.0 0.01 0.76 0.76 96 976.6
20260504014510 40 107 18.0 26.0 0.00 0.75 0.75 96 977.8
20260504013006 41 85 22.0 29.0 0.01 0.75 0.75 96 978.2
20260504011503 41 118 18.0 30.0 0.02 0.75 0.75 97 978.9
20260504010100 42 112 22.0 30.0 0.03 0.75 0.75 97 979.7
20260504004557 42 83 18.0 33.0 0.06 0.75 0.75 97 980.4
20260504003054 41 67 21.0 36.0 0.06 0.74 0.74 97 980.8
20260504001553 41 82 19.0 33.0 0.07 0.72 0.72 97 981.7
20260504000052 41 76 24.0 36.0 0.07 0.72 0.72 97 982.2
20260503234546 41 101 20.0 39.0 0.09 0.69 0.69 97 983.2
20260503233043 41 81 21.0 32.0 0.16 0.68 0.68 97 983.9
20260503231540 40 65 21.0 39.0 0.20 0.65 0.65 97 984.7
20260503230038 39 54 22.0 35.0 0.24 0.65 0.65 96 985.6
20260503224536 39 42 24.0 36.0 0.24 0.60 0.60 96 986.1
20260503223033 38 55 18.0 36.0 0.22 0.52 0.52 96 987.5
20260503221532 39 69 20.0 37.0 0.21 0.46 0.46 96 988.2
20260503220026 39 54 20.0 33.0 0.22 0.40 0.40 96 989.4
20260503214537 39 66 17.0 31.0 0.21 0.35 0.35 95 990.9
20260503213019 39 79 15.0 27.0 0.17 0.30 0.30 95 991.6
20260503211515 39 96 16.0 30.0 0.13 0.24 0.24 95 992.7
20260503210013 40 81 18.0 31.0 0.10 0.18 0.18 95 993.4
20260503204512 40 59 22.0 36.0 0.08 0.14 0.14 94 993.3
20260503203010 41 85 23.0 36.0 0.08 0.13 0.13 94 994.0
20260503201507 42 88 21.0 30.0 0.08 0.11 0.11 94 994.6
20260503200004 42 91 19.0 30.0 0.06 0.08 0.08 94 995.7
20260503194502 43 68 17.0 30.0 0.06 0.06 0.06 93 995.7
20260503193104 43 87 19.0 27.0 0.05 0.05 0.05 92 997.0
20260503191605 43 68 15.0 25.0 0.03 0.03 0.03 91 997.2
20260503190055 44 87 17.0 22.0 0.02 0.02 0.02 88 998.5
20260503184600 44 46 13.0 30.0 0.00 0.00 0.00 85 998.7
20260503183048 44 27 19.0 28.0 0.00 0.00 0.00 84 999.0
20260503181607 43 67 15.0 31.0 0.00 0.00 0.00 85 1000.5
20260503180050 42 42 15.0 27.0 0.00 0.00 0.00 88 1001.5
20260503174545 42 57 21.0 27.0 0.00 0.00 0.00 87 1001.8
20260503173046 42 44 22.0 28.0 0.00 0.00 0.00 87 1002.2
20260503171530 41 50 17.0 25.0 0.00 0.00 0.00 88 1004.2